{"data":{"norad_id":58407,"intl_designator":"2023-180F","name":"STARLINK-30954","alt_names":[],"object_type":"PAYLOAD","status":"ACTIVE","operator":null,"country":"US","launch_date":"2023-11-22","launch_site_code":"AFETR","launch_vehicle":null,"mission":null,"orbit_class":"UNKNOWN","rcs_meters":null,"size_class":null,"mass_kg":null,"dimensions":null,"purposes":["comms"],"wikipedia_slug":null,"has_3d_model":false,"image_url":null,"decayed_at":null,"tle_current":{"epoch":"2026-09-20T20:15:53.261280Z","epoch_age_seconds":113895,"freshness":"FRESH","line1":"1 58407U 23180F   26263.84436645  .00001110  00000+0  49840-4 0  9998","line2":"2 58407  43.0014  30.3064 0001127 278.1959  81.8765 15.27585584157475","mean_motion":15.27585584,"eccentricity":0.0001127,"inclination_deg":43.0014,"raan_deg":30.3064,"arg_perigee_deg":278.1959,"mean_anomaly_deg":81.8765,"bstar":4.984e-5,"rev_number":15747,"period_min":94.26640412705,"perigee_km":482.25912179712,"apogee_km":483.80562937438,"semimajor_km":6861.1693755858,"source":"CELESTRAK","updated_at":"2026-09-21T09:00:33.870404Z"}}}